Location: Fontevrault
(47.1823°N, 0.0493°E)
Time: 04:16:40
(UTC+00:00)

Meteor 1-21 Rocket - Pass Details

Date: 24 October 2021
Orbit: 834 x 907 km, 81.2° (Epoch: 07 December)

Event Time Altitude Azimuth Distance (km) Brightness Sun altitude
Rises 17:25:48 0° 348° (NNW) 3,515 7.4 -5.7°
Reaches altitude 10° 17:28:15 10° 349° (NNW) 2,579 6.7 -6.1°
Maximum altitude 17:34:09 90° 276° (W) 911 4.4 -7.1°
Drops below altitude 10° 17:40:05 10° 171° (S) 2,583 6.7 -8.1°
Sets 17:42:32 0° 171° (S) 3,520 7.4 -8.5°
